Погода в Антоновке

Россия / Республика Татарстан     54°54′39″N   49°29′18″E
темп.,
°C
ветер,
м/с
пор.,
м/с
влажн.,
%
обл.,
%
осадки,
мм/ч
давл.,
гПа
погр.,
м
19 апреля, пн
пн1900:00+4св5115799 0.0 1024416
03:00+4всв7126095 0.0 1025477
06:00+2всв71360100 0.0 1026585
09:00+4всв81154100 0.0 1026902
12:00+7в81048100 0.0 10271404
15:00+7в81050100 0.0 10271581
18:00+7в6105288 0.0 10271271
21:00+5всв5115453 0.0 1028371
20 апреля, вт
вт2000:00+3в614475 0.0 1029416
03:00+1в613575 0.0 1030345
06:00+2вюв613570 0.0 1031471
09:00+6вюв79350 0.0 10311004
12:00+9вюв78280 0.0 10301387
15:00+10юв78250 0.0 10291574
18:00+8вюв71132100 0.0 1027712
21:00+6вюв7143945 0.0 1027482
21 апреля, ср
ср2100:00+4юв7154385 0.0 1026542
03:00+4юв81746100 0.0 1025692
06:00+4юв91846100 0.0 1023672
09:00+5юв91645100 0.1 1023841
12:00+3юв91976100 0.8 1023809
15:00+3ююв101985100 2.0 1023754
18:00+2ююв91892100 2.4 1023705
21:00+2ююв71496100 4.7 1023617
22 апреля, чт
чт2200:00+3ю61394100 0.1 1023585
03:00+3ююв61296100 0.2 1024511
06:00+4ююв51194100 0.1 1024468
09:00+5ююв5991100 0.1 1024498
12:00+6ююв51089100 0.1 1025599
15:00+7ююв51089100 0.3 1025557
18:00+7ююв5109191 0.1 1026462
21:00+6ю41091100 0.1 1027400
23 апреля, пт
пт2300:00+6ююв4890100 0.0 1026259
03:00+5ююв4791100 0.0 1026208
06:00+5юв3690100 0.0 1026228
09:00+7ююв4482100 0.0 1026362
12:00+9ююв3472100 0.0 1025747
15:00+10вюв447199 0.0 1024871
18:00+8вюв4577100 0.0 1024739
21:00+7в248592 0.0 1022166